Location: Boursonne
(49.2024°N, 3.0468°E)
Time: 06:45:17
(UTC+00:00)

Cosmos 1869 Rocket - Pass Details

Date: 03 March 2021
Orbit: 605 x 633 km, 82.5° (Epoch: 11 April)

Event Time Altitude Azimuth Distance (km) Brightness Sun altitude
Rises 19:50:58 0° 194° (SSW) 2,861 6.9 -22.9°
Reaches altitude 10° 19:53:10 10° 196° (SSW) 1,965 6.1 -23.2°
Maximum altitude 19:57:31 72° 281° (W) 653 3.7 -23.9°
Drops below altitude 10° 20:01:56 10° 6° (N) 1,999 6.3 -24.6°
Sets 20:04:12 0° 9° (N) 2,914 7.2 -24.9°
